Location: Buckeye Ditch
(40.9104°N, 122.9517°W)
Time: 21:58:22
(UTC+00:00)

Altair - All Passes

Search period start: 20 April 2026 00:00
Search period end: 30 April 2026 00:00
Orbit: 1502 x 1682 km, 47.2° (Epoch: 20 April)

Date Brightness Start Highest point End Pass type
(mag) Time Alt. Az. Time Alt. Az. Time Alt. Az.
20 Apr - 01:46:40 10° WNW 01:56:29 81° SSW 02:05:53 10° SE daylight
20 Apr - 03:52:29 10° WNW 04:00:11 28° SW 04:07:41 10° S visible
20 Apr - 17:06:08 10° SSE 17:11:48 17° ESE 17:17:26 10° E daylight
20 Apr - 19:05:15 10° SW 19:15:06 58° SE 19:24:47 10° ENE daylight
20 Apr - 21:09:48 10° WSW 21:19:56 72° NNW 21:29:48 10° ENE daylight
20 Apr - 23:15:55 10° WNW 23:25:50 62° N 23:35:22 10° E daylight
21 Apr - 01:21:22 10° WNW 01:31:15 85° SSW 01:40:42 10° ESE daylight
21 Apr - 03:27:02 10° WNW 03:35:04 31° SW 03:42:53 10° S visible
21 Apr - 16:41:51 10° SSE 16:46:42 15° ESE 16:51:31 10° E daylight
21 Apr - 18:40:08 10° SSW 18:49:52 54° SE 18:59:29 10° ENE daylight
21 Apr - 20:44:27 10° WSW 20:54:37 75° NNW 21:04:32 10° ENE daylight
21 Apr - 22:50:33 10° WNW 23:00:29 61° N 23:10:04 10° E daylight
22 Apr - 00:56:04 10° WNW 01:06:00 89° SSW 01:15:30 10° ESE daylight
22 Apr - 03:01:36 10° WNW 03:09:56 34° SW 03:18:02 10° SSE daylight
22 Apr - 16:17:51 10° SE 16:21:36 13° ESE 16:25:21 10° E daylight
22 Apr - 18:15:03 10° SSW 18:24:40 50° SE 18:34:11 10° ENE daylight
22 Apr - 20:19:06 10° WSW 20:29:18 77° NNW 20:39:15 10° ENE daylight
22 Apr - 22:25:10 10° WNW 22:35:08 61° N 22:44:45 10° E daylight
23 Apr - 00:30:45 10° WNW 00:40:44 87° NNE 00:50:17 10° ESE daylight
23 Apr - 02:36:12 10° WNW 02:44:49 38° SW 02:53:09 10° SSE daylight
23 Apr - 15:54:32 10° SE 15:56:31 11° ESE 15:58:30 10° ESE daylight
23 Apr - 17:49:59 10° SSW 17:59:28 46° SE 18:08:51 10° ENE daylight
23 Apr - 19:53:46 10° WSW 20:03:59 80° NNW 20:13:59 10° ENE daylight
23 Apr - 21:59:48 10° W 22:09:47 61° N 22:19:26 10° E daylight
24 Apr - 00:05:27 10° WNW 00:15:28 84° NNE 00:25:03 10° ESE daylight
24 Apr - 02:10:49 10° WNW 02:19:40 41° SW 02:28:13 10° SSE daylight
24 Apr - 17:24:58 10° SSW 17:34:16 43° SE 17:43:31 10° ENE daylight
24 Apr - 19:28:27 10° WSW 19:38:40 83° NNW 19:48:43 10° ENE daylight
24 Apr - 21:34:25 10° W 21:44:25 61° N 21:54:06 10° E daylight
24 Apr - 23:40:08 10° WNW 23:50:10 80° NNE 23:59:48 10° ESE daylight
25 Apr - 01:45:27 10° WNW 01:54:31 45° SW 02:03:15 10° SSE daylight
25 Apr - 16:59:58 10° SSW 17:09:05 40° SE 17:18:10 10° ENE daylight
25 Apr - 19:03:09 10° WSW 19:13:22 87° NNW 19:23:27 10° ENE daylight
25 Apr - 21:09:02 10° W 21:19:03 61° N 21:28:47 10° ENE daylight
25 Apr - 23:14:49 10° WNW 23:24:52 77° NNE 23:34:32 10° ESE daylight
26 Apr - 01:20:06 10° WNW 01:29:22 48° SW 01:38:17 10° SSE daylight
26 Apr - 03:29:54 10° WSW 03:32:10 11° WSW 03:34:26 10° SW visible
26 Apr - 16:35:01 10° SSW 16:43:55 36° SE 16:52:47 10° ENE daylight
26 Apr - 18:37:51 10° WSW 18:48:05 89° SE 18:58:10 10° ENE daylight
26 Apr - 20:43:39 10° W 20:53:42 61° N 21:03:28 10° ENE daylight
26 Apr - 22:49:29 10° WNW 22:59:34 75° NNE 23:09:15 10° ESE daylight
27 Apr - 00:54:45 10° WNW 01:04:11 52° SW 01:13:15 10° SSE daylight
27 Apr - 03:03:16 10° W 03:07:06 13° WSW 03:10:54 10° SW daylight
27 Apr - 16:10:07 10° S 16:18:45 33° SE 16:27:23 10° ENE daylight
27 Apr - 18:12:35 10° WSW 18:22:48 86° SSE 18:32:54 10° ENE daylight
27 Apr - 20:18:16 10° W 20:28:20 62° N 20:38:10 10° ENE daylight
27 Apr - 22:24:09 10° WNW 22:34:15 72° NNE 22:43:58 10° ESE daylight
28 Apr - 00:29:25 10° WNW 00:39:00 56° SW 00:48:12 10° SE daylight
28 Apr - 02:37:10 10° W 02:42:02 15° WSW 02:46:50 10° SSW daylight
28 Apr - 15:45:15 10° S 15:53:35 30° SE 16:01:57 10° ENE daylight
28 Apr - 17:47:20 10° SW 17:57:31 82° SSE 18:07:37 10° ENE daylight
28 Apr - 19:52:52 10° W 20:02:59 63° N 20:12:51 10° ENE daylight
28 Apr - 21:58:49 10° WNW 22:08:56 70° NNE 22:18:40 10° E daylight
29 Apr - 00:04:05 10° WNW 00:13:48 61° SW 00:23:08 10° SE daylight
29 Apr - 02:11:17 10° W 02:16:57 17° WSW 02:22:32 10° SSW daylight
29 Apr - 15:20:26 10° S 15:28:26 28° SE 15:36:29 10° ENE daylight
29 Apr - 17:22:06 10° SW 17:32:14 78° SSE 17:42:21 10° ENE daylight
29 Apr - 19:27:29 10° W 19:37:36 64° N 19:47:32 10° ENE daylight
29 Apr - 21:33:30 10° WNW 21:43:36 68° NNE 21:53:22 10° E daylight
29 Apr - 23:38:45 10° WNW 23:48:35 65° SW 23:58:02 10° SE daylight
